18-04-2023, 00:00:09,     45,    0.0,    4.7,   0.00,   0.00, 1024.9,    0.6, -999.0
18-04-2023, 00:00:19,     45,    0.0,    4.8,   0.00,   0.00, 1024.9,    0.5, -999.0
18-04-2023, 00:00:29,     44,    0.0,    4.7,   0.00,   0.00, 1024.9,    0.5, -999.0
18-04-2023, 00:00:39,     44,    0.0,    4.7,   0.00,   0.00, 1025.0,    0.4, -999.0
18-04-2023, 00:00:49,     44,    0.0,    4.8,   0.00,   0.00, 1024.9,    0.6, -999.0
18-04-2023, 00:00:59,     44,    0.0,    4.7,   0.00,   0.00, 1024.9,    0.8, -999.0
18-04-2023, 00:01:09,     44,    0.2,    4.7,   0.00,   0.00, 1025.0,    0.9, -999.0
18-04-2023, 00:01:19,     32,    0.8,    4.7,   0.00,   0.00, 1025.0,    1.2, -999.0
18-04-2023, 00:01:29,     32,    0.0,    4.7,   0.00,   0.00, 1024.9,    0.7, -999.0
18-04-2023, 00:01:39,     29,    0.1,    4.8,   0.00,   0.00, 1025.0,    0.3, -999.0
18-04-2023, 00:01:49,     32,    0.9,    4.7,   0.00,   0.00, 1025.0,    0.3, -999.0
18-04-2023, 00:01:59,    352,    0.6,    4.6,   0.00,   0.00, 1025.0,    0.9, -999.0
18-04-2023, 00:02:09,    352,    0.0,    4.6,   0.00,   0.00, 1024.9,    0.7, -999.0
18-04-2023, 00:02:19,     17,    0.3,    4.6,   0.00,   0.00, 1024.9,    0.5, -999.0
18-04-2023, 00:02:29,      9,    0.4,    4.7,   0.00,   0.00, 1025.0,    1.3, -999.0
18-04-2023, 00:02:39,      9,    0.1,    4.6,   0.00,   0.00, 1025.0,    0.6, -999.0
18-04-2023, 00:02:48,      9,    0.0,    4.6,   0.00,   0.00, 1024.9,    0.4, -999.0
18-04-2023, 00:02:59,     10,    0.0,    4.6,   0.00,   0.00, 1024.9,    0.8, -999.0
18-04-2023, 00:03:09,     10,    0.0,    4.6,   0.00,   0.00, 1024.9,    0.6, -999.0
18-04-2023, 00:03:19,      0,    0.0,    4.7,   0.00,   0.00, 1024.9,    0.9, -999.0
18-04-2023, 00:03:28,      0,    0.0,    4.7,   0.00,   0.00, 1024.9,    0.5, -999.0
18-04-2023, 00:03:39,      0,    0.0,    4.6,   0.00,   0.00, 1024.9,    0.8, -999.0
18-04-2023, 00:03:49,      0,    0.0,    4.7,   0.00,   0.00, 1024.9,    0.6, -999.0
18-04-2023, 00:03:58,      0,    0.0,    4.7,   0.00,   0.00, 1024.9,    0.7, -999.0
18-04-2023, 00:04:08,      0,    0.0,    4.7,   0.00,   0.00, 1025.0,    0.7, -999.0
18-04-2023, 00:04:19,      0,    0.0,    4.7,   0.00,   0.00, 1024.9,    0.6, -999.0
18-04-2023, 00:04:29,      0,    0.0,    4.7,   0.00,   0.00, 1025.0,    0.6, -999.0
18-04-2023, 00:04:38,      0,    0.0,    4.7,   0.00,   0.00, 1025.0,    0.7, -999.0
18-04-2023, 00:04:49,      0,    0.0,    4.7,   0.00,   0.00, 1025.0,    0.7, -999.0
18-04-2023, 00:04:59,      0,    0.0,    4.8,   0.00,   0.00, 1025.0,    0.7, -999.0
18-04-2023, 00:05:08,     56,    0.0,    4.8,   0.00,   0.00, 1025.0,    0.6, -999.0
18-04-2023, 00:05:18,     16,    1.0,    4.8,   0.00,   0.00, 1025.0,    1.1, -999.0
18-04-2023, 00:05:29,      4,    1.2,    4.8,   0.00,   0.00, 1025.1,    0.9, -999.0
18-04-2023, 00:05:38,      4,    0.2,    4.7,   0.00,   0.00, 1025.0,    0.9, -999.0
18-04-2023, 00:05:48,      5,    0.1,    4.7,   0.00,   0.00, 1025.0,    0.9, -999.0
18-04-2023, 00:05:58,      4,    0.0,    4.7,   0.00,   0.00, 1025.0,    0.6, -999.0
18-04-2023, 00:06:09,      5,    0.0,    4.6,   0.00,   0.00, 1025.0,    0.6, -999.0
18-04-2023, 00:06:18,      5,    0.0,    4.8,   0.00,   0.00, 1025.0,    0.5, -999.0
18-04-2023, 00:06:28,      5,    0.0,    4.7,   0.00,   0.00, 1025.0,    0.6, -999.0
18-04-2023, 00:06:38,      5,    0.0,    4.7,   0.00,   0.00, 1025.0,    0.6, -999.0
18-04-2023, 00:06:48,      5,    0.0,    4.7,   0.00,   0.00, 1025.0,    0.6, -999.0
18-04-2023, 00:06:58,      6,    0.0,    4.8,   0.00,   0.00, 1025.0,    0.6, -999.0
18-04-2023, 00:07:08,      5,    0.0,    4.7,   0.00,   0.00, 1025.0,    0.8, -999.0
18-04-2023, 00:07:18,     25,    1.0,    4.8,   0.00,   0.00, 1025.1,    0.7, -999.0
18-04-2023, 00:07:28,     25,    1.4,    4.8,   0.00,   0.00, 1025.1,    0.6, -999.0
18-04-2023, 00:07:38,     25,    0.1,    4.7,   0.00,   0.00, 1025.0,    0.5, -999.0
18-04-2023, 00:07:48,     25,    0.0,    4.7,   0.00,   0.00, 1025.0,    0.6, -999.0
18-04-2023, 00:07:58,     25,    0.0,    4.6,   0.00,   0.00, 1025.0,    0.9, -999.0
18-04-2023, 00:08:08,     25,    0.0,    4.6,   0.00,   0.00, 1025.0,    0.7, -999.0
18-04-2023, 00:08:18,     23,    0.0,    4.6,   0.00,   0.00, 1025.0,    0.8, -999.0
18-04-2023, 00:08:28,     19,    1.3,    4.7,   0.00,   0.00, 1025.1,    0.9, -999.0
18-04-2023, 00:08:38,     19,    0.5,    4.7,   0.00,   0.00, 1025.1,    0.3, -999.0
18-04-2023, 00:08:48,     19,    0.0,    4.6,   0.00,   0.00, 1025.0,    0.6, -999.0
18-04-2023, 00:08:58,     19,    0.0,    4.6,   0.00,   0.00, 1025.0,    0.5, -999.0
18-04-2023, 00:09:08,     19,    0.0,    4.6,   0.00,   0.00, 1025.0,    0.6, -999.0
18-04-2023, 00:09:18,     18,    0.3,    4.7,   0.00,   0.00, 1025.1,    0.8, -999.0
18-04-2023, 00:09:28,     19,    0.0,    4.7,   0.00,   0.00, 1025.0,    0.7, -999.0
18-04-2023, 00:09:38,     19,    0.0,    4.7,   0.00,   0.00, 1025.0,    0.7, -999.0
18-04-2023, 00:09:48,     19,    0.0,    4.7,   0.00,   0.00, 1025.0,    0.5, -999.0
18-04-2023, 00:09:58,     19,    0.0,    4.7,   0.00,   0.00, 1025.1,    0.7, -999.0
18-04-2023, 00:10:08,     19,    0.1,    4.8,   0.00,   0.00, 1025.1,    0.6, -999.0
18-04-2023, 00:10:18,     19,    0.0,    4.8,   0.00,   0.00, 1025.1,    0.5, -999.0
18-04-2023, 00:10:28,     19,    0.0,    4.7,   0.00,   0.00, 1025.1,    0.9, -999.0
18-04-2023, 00:10:38,     18,    0.1,    4.8,   0.00,   0.00, 1025.1,    0.5, -999.0
18-04-2023, 00:10:48,     19,    0.0,    4.7,   0.00,   0.00, 1025.0,    0.6, -999.0
18-04-2023, 00:10:58,     19,    0.0,    4.7,   0.00,   0.00, 1025.0,    0.5, -999.0
18-04-2023, 00:11:08,     19,    0.0,    4.7,   0.00,   0.00, 1025.0,    0.6, -999.0
18-04-2023, 00:11:18,     19,    0.7,    4.7,   0.00,   0.00, 1025.1,    0.8, -999.0
18-04-2023, 00:11:28,     19,    0.5,    4.7,   0.00,   0.00, 1025.1,    0.4, -999.0
18-04-2023, 00:11:38,     14,    0.8,    4.7,   0.00,   0.00, 1025.1,    0.9, -999.0
18-04-2023, 00:11:48,     14,    0.2,    4.6,   0.00,   0.00, 1025.1,    0.8, -999.0
18-04-2023, 00:11:58,     14,    0.0,    4.7,   0.00,   0.00, 1025.1,    0.3, -999.0
18-04-2023, 00:12:08,     13,    0.0,    4.6,   0.00,   0.00, 1025.1,    0.6, -999.0
18-04-2023, 00:12:18,     14,    0.0,    4.6,   0.00,   0.00, 1025.0,    0.6, -999.0
18-04-2023, 00:12:28,     14,    0.0,    4.7,   0.00,   0.00, 1025.0,    0.6, -999.0
18-04-2023, 00:12:38,     14,    0.0,    4.7,   0.00,   0.00, 1025.1,    0.5, -999.0
18-04-2023, 00:12:48,     14,    0.0,    4.8,   0.00,   0.00, 1025.0,    0.7, -999.0
18-04-2023, 00:12:57,     14,    0.0,    4.8,   0.00,   0.00, 1025.0,    0.6, -999.0
18-04-2023, 00:13:08,     14,    0.0,    4.7,   0.00,   0.00, 1025.0,    0.8, -999.0
18-04-2023, 00:13:18,     14,    0.0,    4.8,   0.00,   0.00, 1025.1,    0.6, -999.0
18-04-2023, 00:13:27,     14,    0.0,    4.8,   0.00,   0.00, 1025.1,    0.7, -999.0
18-04-2023, 00:13:37,     14,    0.0,    4.7,   0.00,   0.00, 1025.0,    0.9, -999.0
18-04-2023, 00:13:48,     14,    0.0,    4.8,   0.00,   0.00, 1025.1,    0.5, -999.0
18-04-2023, 00:13:58,     15,    0.0,    4.8,   0.00,   0.00, 1025.1,    0.5, -999.0
18-04-2023, 00:14:07,     14,    0.0,    4.6,   0.00,   0.00, 1025.1,    0.7, -999.0
18-04-2023, 00:14:17,     14,    0.0,    4.7,   0.00,   0.00, 1025.0,    0.7, -999.0
18-04-2023, 00:14:28,     14,    0.0,    4.7,   0.00,   0.00, 1025.1,    0.7, -999.0
18-04-2023, 00:14:37,     14,    0.0,    4.7,   0.00,   0.00, 1025.1,    0.7, -999.0
18-04-2023, 00:14:47,     14,    0.0,    4.7,   0.00,   0.00, 1025.0,    0.4, -999.0
18-04-2023, 00:14:57,     14,    0.0,    4.7,   0.00,   0.00, 1025.0,    0.5, -999.0
18-04-2023, 00:15:08,     14,    0.0,    4.7,   0.00,   0.00, 1025.1,    0.6, -999.0
18-04-2023, 00:15:17,     14,    0.0,    4.7,   0.00,   0.00, 1025.0,    0.6, -999.0
18-04-2023, 00:15:27,     14,    0.0,    4.7,   0.00,   0.00, 1025.1,    0.7, -999.0
18-04-2023, 00:15:37,     39,    0.8,    4.8,   0.00,   0.00, 1025.2,    0.8, -999.0
18-04-2023, 00:15:47,      0,    0.3,    4.7,   0.00,   0.00, 1025.2,    0.7, -999.0
18-04-2023, 00:15:57,      0,    0.0,    4.7,   0.00,   0.00, 1025.0,    0.6, -999.0
18-04-2023, 00:16:07,      0,    0.0,    4.7,   0.00,   0.00, 1025.0,    0.6, -999.0
18-04-2023, 00:16:17,     24,    0.0,    4.7,   0.00,   0.00, 1025.0,    0.8, -999.0
18-04-2023, 00:16:27,     47,    0.1,    4.7,   0.00,   0.00, 1025.1,    0.4, -999.0
18-04-2023, 00:16:37,     45,    0.0,    4.7,   0.00,   0.00, 1025.1,    0.6, -999.0
18-04-2023, 00:16:47,     33,    1.5,    4.8,   0.00,   0.00, 1025.2,    1.0, -999.0
18-04-2023, 00:16:57,     25,    1.3,    4.8,   0.00,   0.00, 1025.2,    0.7, -999.0
18-04-2023, 00:17:07,     24,    0.1,    4.7,   0.00,   0.00, 1025.1,    1.0, -999.0
18-04-2023, 00:17:17,     24,    0.0,    4.7,   0.00,   0.00, 1025.1,    0.8, -999.0
18-04-2023, 00:17:27,     24,    0.0,    4.7,   0.00,   0.00, 1025.1,    0.5, -999.0
18-04-2023, 00:17:37,     24,    0.0,    4.8,   0.00,   0.00, 1025.1,    0.7, -999.0
18-04-2023, 00:17:47,     24,    0.0,    4.7,   0.00,   0.00, 1025.0,    0.5, -999.0
18-04-2023, 00:17:57,     24,    0.0,    4.8,   0.00,   0.00, 1025.1,    0.6, -999.0
18-04-2023, 00:18:07,     24,    0.0,    4.8,   0.00,   0.00, 1025.0,    0.6, -999.0
18-04-2023, 00:18:17,     24,    0.0,    4.8,   0.00,   0.00, 1025.0,    0.8, -999.0
18-04-2023, 00:18:27,     24,    0.0,    4.8,   0.00,   0.00, 1025.0,    0.7, -999.0
18-04-2023, 00:18:37,     24,    0.0,    4.9,   0.00,   0.00, 1025.1,    0.6, -999.0
18-04-2023, 00:18:47,     24,    0.0,    4.8,   0.00,   0.00, 1025.1,    0.7, -999.0
18-04-2023, 00:18:57,     25,    0.3,    4.9,   0.00,   0.00, 1025.1,    0.8, -999.0
18-04-2023, 00:19:07,     15,    0.9,    4.9,   0.00,   0.00, 1025.2,    0.7, -999.0
18-04-2023, 00:19:17,     53,    2.0,    4.9,   0.00,   0.00, 1025.2,    0.6, -999.0
18-04-2023, 00:19:27,     45,    1.7,    4.8,   0.00,   0.00, 1025.1,    0.9, -999.0
18-04-2023, 00:19:37,      2,    1.5,    4.8,   0.00,   0.00, 1025.2,    0.6, -999.0
18-04-2023, 00:19:47,      3,    1.4,    4.8,   0.00,   0.00, 1025.2,    1.3, -999.0
18-04-2023, 00:19:57,     24,    0.6,    4.8,   0.00,   0.00, 1025.1,    1.0, -999.0
18-04-2023, 00:20:07,     24,    0.1,    4.8,   0.00,   0.00, 1025.1,    0.6, -999.0
18-04-2023, 00:20:17,     24,    0.0,    4.7,   0.00,   0.00, 1025.1,    0.7, -999.0
18-04-2023, 00:20:27,     44,    1.3,    4.8,   0.00,   0.00, 1025.1,    0.8, -999.0
18-04-2023, 00:20:37,     44,    0.0,    4.7,   0.00,   0.00, 1025.1,    0.8, -999.0
18-04-2023, 00:20:47,     42,    0.4,    4.7,   0.00,   0.00, 1025.1,    0.6, -999.0
18-04-2023, 00:20:57,      0,    0.7,    4.7,   0.00,   0.00, 1025.1,    1.1, -999.0
18-04-2023, 00:21:07,      0,    0.1,    4.7,   0.00,   0.00, 1025.1,    0.6, -999.0
18-04-2023, 00:21:16,     16,    0.0,    4.7,   0.00,   0.00, 1025.1,    0.9, -999.0
18-04-2023, 00:21:27,     41,    1.0,    4.8,   0.00,   0.00, 1025.1,    1.2, -999.0
18-04-2023, 00:21:37,    358,    1.1,    4.8,   0.00,   0.00, 1025.2,    0.4, -999.0
18-04-2023, 00:21:47,      0,    0.0,    4.7,   0.00,   0.00, 1025.0,    0.6, -999.0
18-04-2023, 00:21:56,      0,    0.0,    4.7,   0.00,   0.00, 1025.1,    0.8, -999.0
18-04-2023, 00:22:07,      5,    0.1,    4.8,   0.00,   0.00, 1025.1,    0.4, -999.0
18-04-2023, 00:22:17,      5,    0.0,    4.8,   0.00,   0.00, 1025.1,    0.7, -999.0
18-04-2023, 00:22:26,      8,    0.0,    4.8,   0.00,   0.00, 1025.1,    0.9, -999.0
18-04-2023, 00:22:36,      8,    0.0,    4.8,   0.00,   0.00, 1025.1,    0.7, -999.0
18-04-2023, 00:22:47,      8,    0.0,    4.8,   0.00,   0.00, 1025.0,    0.8, -999.0
18-04-2023, 00:22:56,      8,    0.0,    4.8,   0.00,   0.00, 1025.1,    0.6, -999.0
18-04-2023, 00:23:06,      8,    0.0,    4.8,   0.00,   0.00, 1025.0,    0.6, -999.0
18-04-2023, 00:23:16,     24,    0.0,    4.8,   0.00,   0.00, 1025.1,    0.5, -999.0
18-04-2023, 00:23:27,     32,    2.1,    4.9,   0.00,   0.00, 1025.2,    0.0, -999.0
18-04-2023, 00:23:36,      8,    2.0,    4.9,   0.00,   0.00, 1025.1,    0.8, -999.0
18-04-2023, 00:23:46,      8,    1.3,    4.8,   0.00,   0.00, 1025.2,    0.7, -999.0
18-04-2023, 00:23:56,      9,    1.2,    4.8,   0.00,   0.00, 1025.2,    0.4, -999.0
18-04-2023, 00:24:06,      0,    0.0,    4.8,   0.00,   0.00, 1025.1,    0.6, -999.0
18-04-2023, 00:24:16,      0,    0.0,    4.7,   0.00,   0.00, 1025.0,    0.5, -999.0
18-04-2023, 00:24:26,      0,    0.0,    4.7,   0.00,   0.00, 1025.1,    0.7, -999.0
18-04-2023, 00:24:36,      0,    0.0,    4.8,   0.00,   0.00, 1025.1,    0.4, -999.0
18-04-2023, 00:24:46,      0,    0.5,    4.8,   0.00,   0.00, 1025.1,    0.4, -999.0
18-04-2023, 00:24:56,     10,    0.0,    4.8,   0.00,   0.00, 1025.1,    0.4, -999.0
18-04-2023, 00:25:06,      7,    0.8,    4.8,   0.00,   0.00, 1025.1,    0.6, -999.0
18-04-2023, 00:25:16,      8,    0.4,    4.9,   0.00,   0.00, 1025.1,    0.1, -999.0
18-04-2023, 00:25:26,      8,    0.3,    4.8,   0.00,   0.00, 1025.1,    1.0, -999.0
18-04-2023, 00:25:36,      7,    0.0,    4.8,   0.00,   0.00, 1025.0,    0.5, -999.0
18-04-2023, 00:25:46,      7,    0.0,    4.8,   0.00,   0.00, 1025.0,    0.5, -999.0
18-04-2023, 00:25:56,      7,    0.0,    4.8,   0.00,   0.00, 1025.0,    0.5, -999.0
18-04-2023, 00:26:06,     25,    0.0,    4.8,   0.00,   0.00, 1025.0,    0.5, -999.0
18-04-2023, 00:26:16,    358,    1.1,    4.9,   0.00,   0.00, 1025.1,    0.4, -999.0
18-04-2023, 00:26:26,     11,    1.0,    4.7,   0.00,   0.00, 1025.1,    0.7, -999.0
18-04-2023, 00:26:36,     21,    1.2,    4.9,   0.00,   0.00, 1025.1,    0.8, -999.0
18-04-2023, 00:26:46,     20,    0.5,    4.9,   0.00,   0.00, 1025.0,    0.3, -999.0
18-04-2023, 00:26:56,     19,    0.0,    4.8,   0.00,   0.00, 1025.1,    0.7, -999.0
18-04-2023, 00:27:06,     20,    0.0,    4.9,   0.00,   0.00, 1025.0,    0.5, -999.0
18-04-2023, 00:27:16,     20,    0.0,    4.9,   0.00,   0.00, 1025.0,    0.8, -999.0
18-04-2023, 00:27:26,     20,    0.0,    4.9,   0.00,   0.00, 1025.0,    0.7, -999.0
18-04-2023, 00:27:36,     19,    0.0,    5.0,   0.00,   0.00, 1025.0,    0.8, -999.0
18-04-2023, 00:27:46,     20,    0.0,    5.0,   0.00,   0.00, 1025.0,    0.6, -999.0
18-04-2023, 00:27:56,     21,    0.0,    4.9,   0.00,   0.00, 1025.0,    0.7, -999.0
18-04-2023, 00:28:06,     20,    0.0,    4.9,   0.00,   0.00, 1025.0,    0.6, -999.0
18-04-2023, 00:28:16,     20,    0.0,    5.0,   0.00,   0.00, 1025.0,    0.5, -999.0
18-04-2023, 00:28:26,     20,    0.0,    4.9,   0.00,   0.00, 1025.0,    0.7, -999.0
18-04-2023, 00:28:36,     23,    0.0,    4.9,   0.00,   0.00, 1025.0,    0.6, -999.0
18-04-2023, 00:28:46,     20,    0.0,    4.9,   0.00,   0.00, 1025.0,    0.7, -999.0
18-04-2023, 00:28:56,     20,    0.0,    4.9,   0.00,   0.00, 1025.0,    0.6, -999.0
18-04-2023, 00:29:06,     20,    0.0,    4.9,   0.00,   0.00, 1025.0,    0.6, -999.0
18-04-2023, 00:29:16,     20,    0.0,    4.8,   0.00,   0.00, 1025.0,    0.8, -999.0
18-04-2023, 00:29:26,     20,    0.0,    4.9,   0.00,   0.00, 1025.0,    0.5, -999.0
18-04-2023, 00:29:36,     20,    0.0,    4.8,   0.00,   0.00, 1025.0,    0.5, -999.0
18-04-2023, 00:29:46,     19,    0.0,    4.9,   0.00,   0.00, 1025.0,    0.6, -999.0
18-04-2023, 00:29:56,     20,    0.0,    4.9,   0.00,   0.00, 1025.0,    0.7, -999.0
18-04-2023, 00:30:06,     20,    0.0,    4.9,   0.00,   0.00, 1025.0,    0.5, -999.0
18-04-2023, 00:30:15,     21,    0.0,    4.9,   0.00,   0.00, 1025.0,    0.7, -999.0
18-04-2023, 00:30:26,     20,    0.0,    4.9,   0.00,   0.00, 1025.1,    0.7, -999.0
18-04-2023, 00:30:36,     20,    0.0,    4.9,   0.00,   0.00, 1025.1,    0.8, -999.0
18-04-2023, 00:30:45,     20,    0.0,    4.9,   0.00,   0.00, 1025.0,    0.7, -999.0
18-04-2023, 00:30:55,     20,    0.0,    4.9,   0.00,   0.00, 1025.1,    0.5, -999.0
18-04-2023, 00:31:06,     85,    0.1,    5.0,   0.00,   0.00, 1025.1,    0.8, -999.0
18-04-2023, 00:31:16,     43,    2.2,    4.9,   0.00,   0.00, 1025.1,    0.6, -999.0
18-04-2023, 00:31:25,     43,    0.4,    5.1,   0.00,   0.00, 1025.1,    0.6, -999.0
18-04-2023, 00:31:35,     51,    0.8,    5.1,   0.00,   0.00, 1025.1,    0.7, -999.0
18-04-2023, 00:31:46,     15,    2.9,    5.0,   0.00,   0.00, 1025.2,    0.7, -999.0
18-04-2023, 00:31:55,      9,    1.6,    5.0,   0.00,   0.00, 1025.1,    0.8, -999.0
18-04-2023, 00:32:05,     11,    0.9,    5.0,   0.00,   0.00, 1025.1,    0.5, -999.0
18-04-2023, 00:32:15,      0,    1.7,    5.0,   0.00,   0.00, 1025.1,    0.8, -999.0
18-04-2023, 00:32:25,      0,    0.0,    4.9,   0.00,   0.00, 1025.1,    0.3, -999.0
18-04-2023, 00:32:35,     41,    0.1,    4.9,   0.00,   0.00, 1025.1,    0.8, -999.0
18-04-2023, 00:32:45,     41,    0.7,    4.9,   0.00,   0.00, 1025.1,    0.7, -999.0
18-04-2023, 00:32:56,     41,    0.9,    5.0,   0.00,   0.00, 1025.2,    0.7, -999.0
18-04-2023, 00:33:05,     33,    1.2,    5.0,   0.00,   0.00, 1025.1,    0.6, -999.0
18-04-2023, 00:33:15,     46,    1.4,    5.0,   0.00,   0.00, 1025.1,    0.7, -999.0
18-04-2023, 00:33:25,     46,    0.4,    5.0,   0.00,   0.00, 1025.1,    1.1, -999.0
18-04-2023, 00:33:35,     48,    0.1,    5.0,   0.00,   0.00, 1025.1,    0.6, -999.0
18-04-2023, 00:33:45,     41,    1.2,    5.0,   0.00,   0.00, 1025.1,    0.4, -999.0
18-04-2023, 00:33:55,     27,    0.3,    4.9,   0.00,   0.00, 1025.1,    0.6, -999.0
18-04-2023, 00:34:05,      3,    1.6,    5.1,   0.00,   0.00, 1025.1,    0.5, -999.0
18-04-2023, 00:34:15,      0,    2.0,    5.0,   0.00,   0.00, 1025.1,    0.4, -999.0
18-04-2023, 00:34:25,     18,    3.3,    5.0,   0.00,   0.00, 1025.1,    0.4, -999.0
18-04-2023, 00:34:35,     21,    1.4,    4.8,   0.00,   0.00, 1025.1,    1.1, -999.0
18-04-2023, 00:34:45,      9,    0.3,    4.8,   0.00,   0.00, 1025.1,    0.8, -999.0
18-04-2023, 00:34:55,      9,    0.0,    4.9,   0.00,   0.00, 1025.0,    0.8, -999.0
18-04-2023, 00:35:05,     16,    0.0,    5.0,   0.00,   0.00, 1025.1,    0.5, -999.0
18-04-2023, 00:35:15,     34,    0.0,    5.0,   0.00,   0.00, 1025.1,    0.8, -999.0
18-04-2023, 00:35:25,     34,    0.0,    5.0,   0.00,   0.00, 1025.0,    0.5, -999.0
18-04-2023, 00:35:35,      0,    0.0,    5.1,   0.00,   0.00, 1025.0,    0.7, -999.0
18-04-2023, 00:35:45,     32,    0.0,    5.0,   0.00,   0.00, 1025.1,    0.6, -999.0
18-04-2023, 00:35:55,     32,    0.1,    5.0,   0.00,   0.00, 1025.1,    0.7, -999.0
18-04-2023, 00:36:05,     32,    0.0,    5.0,   0.00,   0.00, 1025.0,    0.7, -999.0
18-04-2023, 00:36:15,     32,    0.0,    5.0,   0.00,   0.00, 1025.0,    0.6, -999.0
18-04-2023, 00:36:25,     32,    0.0,    5.0,   0.00,   0.00, 1025.0,    0.6, -999.0
18-04-2023, 00:36:35,      8,    0.1,    5.1,   0.00,   0.00, 1025.1,    0.5, -999.0
18-04-2023, 00:36:45,     31,    0.7,    5.1,   0.00,   0.00, 1025.1,    1.0, -999.0
18-04-2023, 00:36:55,      0,    1.3,    5.1,   0.00,   0.00, 1025.1,    0.6, -999.0
18-04-2023, 00:37:05,      0,    0.9,    5.1,   0.00,   0.00, 1025.1,    0.9, -999.0
18-04-2023, 00:37:15,      0,    0.1,    5.0,   0.00,   0.00, 1025.0,    0.7, -999.0
18-04-2023, 00:37:25,     55,    1.2,    5.0,   0.00,   0.00, 1025.1,    0.4, -999.0
18-04-2023, 00:37:35,     50,    0.5,    5.0,   0.00,   0.00, 1025.1,    0.8, -999.0
18-04-2023, 00:37:45,     94,    0.0,    4.9,   0.00,   0.00, 1025.1,    0.9, -999.0
18-04-2023, 00:37:55,     73,    0.0,    5.0,   0.00,   0.00, 1025.0,    0.6, -999.0
18-04-2023, 00:38:05,      3,    1.3,    5.1,   0.00,   0.00, 1025.1,    0.8, -999.0
18-04-2023, 00:38:15,      3,    0.6,    5.1,   0.00,   0.00, 1025.1,    0.8, -999.0
18-04-2023, 00:38:25,      3,    0.0,    5.0,   0.00,   0.00, 1025.0,    0.5, -999.0
18-04-2023, 00:38:34,     61,    1.0,    5.1,   0.00,   0.00, 1025.0,    0.6, -999.0
18-04-2023, 00:38:45,     18,    2.2,    5.1,   0.00,   0.00, 1025.1,    0.7, -999.0
18-04-2023, 00:38:55,     13,    1.8,    5.1,   0.00,   0.00, 1025.1,    0.7, -999.0
18-04-2023, 00:39:05,     42,    0.1,    5.1,   0.00,   0.00, 1025.1,    0.7, -999.0
18-04-2023, 00:39:14,     41,    0.0,    5.0,   0.00,   0.00, 1025.0,    0.8, -999.0
18-04-2023, 00:39:25,     42,    0.0,    5.0,   0.00,   0.00, 1025.0,    0.6, -999.0
18-04-2023, 00:39:35,     42,    0.0,    5.1,   0.00,   0.00, 1025.0,    0.7, -999.0
18-04-2023, 00:39:44,     42,    0.0,    5.1,   0.00,   0.00, 1025.0,    0.8, -999.0
18-04-2023, 00:39:54,     42,    0.0,    5.1,   0.00,   0.00, 1025.0,    0.5, -999.0
18-04-2023, 00:40:05,     42,    0.0,    5.1,   0.00,   0.00, 1025.0,    0.5, -999.0
18-04-2023, 00:40:14,     42,    0.0,    5.2,   0.00,   0.00, 1025.0,    0.6, -999.0
18-04-2023, 00:40:24,     42,    0.0,    5.1,   0.00,   0.00, 1025.0,    0.3, -999.0
18-04-2023, 00:40:35,     43,    0.0,    5.1,   0.00,   0.00, 1025.0,    0.6, -999.0
18-04-2023, 00:40:45,     42,    0.0,    5.1,   0.00,   0.00, 1025.0,    0.6, -999.0
18-04-2023, 00:40:54,     42,    0.0,    5.0,   0.00,   0.00, 1025.0,    0.5, -999.0
18-04-2023, 00:41:04,     11,    2.8,    5.1,   0.00,   0.00, 1025.0,    1.1, -999.0
18-04-2023, 00:41:15,    101,    1.9,    5.1,   0.00,   0.00, 1025.1,    0.6, -999.0
18-04-2023, 00:41:24,     28,    0.7,    5.1,   0.00,   0.00, 1025.1,    0.6, -999.0
18-04-2023, 00:41:34,     23,    1.7,    5.1,   0.00,   0.00, 1025.1,    0.8, -999.0
18-04-2023, 00:41:44,     43,    2.1,    5.1,   0.00,   0.00, 1025.1,    1.3, -999.0
18-04-2023, 00:41:54,     43,    0.2,    5.0,   0.00,   0.00, 1025.1,    0.9, -999.0
18-04-2023, 00:42:04,     43,    0.5,    5.1,   0.00,   0.00, 1025.1,    1.0, -999.0
18-04-2023, 00:42:14,     43,    0.1,    5.0,   0.00,   0.00, 1025.0,    0.5, -999.0
18-04-2023, 00:42:24,     43,    0.4,    5.1,   0.00,   0.00, 1025.1,    0.5, -999.0
18-04-2023, 00:42:34,     38,    1.0,    5.1,   0.00,   0.00, 1025.1,    0.5, -999.0
18-04-2023, 00:42:44,     37,    2.4,    5.0,   0.00,   0.00, 1025.1,    0.5, -999.0
18-04-2023, 00:42:54,     40,    2.0,    5.0,   0.00,   0.00, 1025.1,    0.6, -999.0
18-04-2023, 00:43:04,     26,    1.3,    5.1,   0.00,   0.00, 1025.2,    0.6, -999.0
18-04-2023, 00:43:14,     28,    1.4,    5.0,   0.00,   0.00, 1025.1,    0.7, -999.0
18-04-2023, 00:43:24,     38,    2.7,    5.1,   0.00,   0.00, 1025.1,    0.9, -999.0
18-04-2023, 00:43:34,     58,    0.5,    5.1,   0.00,   0.00, 1025.1,    0.4, -999.0
18-04-2023, 00:43:44,     43,    0.2,    5.0,   0.00,   0.00, 1025.1,    0.8, -999.0
18-04-2023, 00:43:54,     40,    2.7,    5.0,   0.00,   0.00, 1025.1,    0.7, -999.0
18-04-2023, 00:44:04,     13,    3.7,    5.1,   0.00,   0.00, 1025.1,    0.6, -999.0
18-04-2023, 00:44:14,     24,    2.9,    5.1,   0.00,   0.00, 1025.1,    0.6, -999.0
18-04-2023, 00:44:24,      1,    4.2,    5.0,   0.00,   0.00, 1025.1,    0.6, -999.0
18-04-2023, 00:44:34,     29,    3.4,    5.0,   0.00,   0.00, 1025.1,    0.6, -999.0
18-04-2023, 00:44:44,     55,    1.8,    5.0,   0.00,   0.00, 1025.2,    0.6, -999.0
18-04-2023, 00:44:54,     34,    1.3,    5.0,   0.00,   0.00, 1025.2,    0.5, -999.0
18-04-2023, 00:45:04,     35,    0.2,    4.9,   0.00,   0.00, 1025.1,    0.3, -999.0
18-04-2023, 00:45:14,     33,    0.1,    4.9,   0.00,   0.00, 1025.1,    0.5, -999.0
18-04-2023, 00:45:24,     33,    1.9,    5.0,   0.00,   0.00, 1025.2,    0.7, -999.0
18-04-2023, 00:45:34,     26,    1.7,    5.1,   0.00,   0.00, 1025.2,    0.6, -999.0
18-04-2023, 00:45:44,     19,    1.2,    5.1,   0.00,   0.00, 1025.2,    0.7, -999.0
18-04-2023, 00:45:54,     19,    0.8,    5.1,   0.00,   0.00, 1025.2,    0.0, -999.0
18-04-2023, 00:46:04,     20,    0.7,    5.0,   0.00,   0.00, 1025.2,    0.9, -999.0
18-04-2023, 00:46:14,     46,    0.4,    5.0,   0.00,   0.00, 1025.1,    0.6, -999.0
18-04-2023, 00:46:24,     46,    1.2,    5.1,   0.00,   0.00, 1025.2,    1.1, -999.0
18-04-2023, 00:46:34,     46,    0.0,    5.0,   0.00,   0.00, 1025.1,    0.9, -999.0
18-04-2023, 00:46:44,     46,    0.0,    4.9,   0.00,   0.00, 1025.0,    0.4, -999.0
18-04-2023, 00:46:54,     46,    0.0,    5.0,   0.00,   0.00, 1025.1,    0.6, -999.0